SCP
0 -0 -0 -0 0 0 -0 -0 -0 -0 -0 -0 0 -0 -0 -0 0 0 0 -0 -0 0 0 -0 -0 -0 -0 -0 -0 -0 -0 -0 -0 -0 -0 -0 -0 -0 -0 -0 -0 -0 -0 -0 -0 -0 -0 -0 -0
0 -0 -0 -0 0 -0 -0 -0 0 0 0 0 0 -0 -0 0 0 -0 -0 -0 -0 -0 0 -0 -0 -0 -0 -0 -0 -0 -0 -0 -0 -0 -0 -0 -0 -0 -0 -0 -0 -0 0 0 0 0 0 0 0
0 -0 -0 0 0 0 0 -0 0 0 -0 0 0 -0 -0 -0 -0 -0 -0 -0 -0 -0 -0 -0 -0 -0 -0 -0 -0 -0 -0 -0 -0 -0 -0 -0 -0 -0 -0 -0 -0 -0 0 0 0 0 0 0 0
0 0 0 0 0 0 -0 -0 0 0 -0 0 0 0 -0 -0 0 0 -0 -0 -0 -0 -0 -0 -0 -0 -0 -0 -0 -0 -0 -0 -0 -0 -0 -0 -0 -0 0 0 0 0 0 0 0 0 0 0 0
0 0 0 0 0 0 -0 -0 -0 -0 -0 -0 -0 0 0 -0 -0 -0 -0 -0 -0 -0 -0 -0 -0 -0 -0 -0 -0 -0 -0 -0 -0 0 0 0 0 0 0 0 0 0 0 0 0 0 0 0 0
0 0 0 0 0 0 0 -0 -0 0 -0 0 0 -0 -0 -0 -0 -0 -0 -0 -0 -0 -0 -0 -0 -0 -0 -0 -0 -0 -0 0 0 0 0 0 0 0 0 0 0 0 0 0 0 0 0 0 0
0 0 0 0 0 0 0 0 0 -0 -0 0 0 0 -0 -0 -0 0 0 -0 -0 -0 0 0 0 0 -0 -0 -0 0 0 0 0 0 0 0 0 0 0 0 0 0 0 0 0 0 0 0 0
0 0 0 0 0 0 0 0 0 0 0 -0 -0 0 0 -0 -0 0 0 0 0 0 0 0 0 0 0 0 0 0 0 0 0 0 0 0 0 0 0 0 0 0 0 0 0 0 0 0 0
0 0 0 0 0 0 0 0 0 0 0 -0 -0 0 -0 0 0 0 1 0 0 0 0 0 0 0 0 0 0 0 0 0 0 0 0 0 0 0 0 0 0 0 0 0 0 0 0 0 0
0 0 0 -0 0 0 0 0 0 0 0 0 0 0 0 0 0 1 2 1 0 0 0 0 0 0 0 0 0 0 0 1 0 0 0 0 0 0 0 0 0 0 0 0 0 0 0 0 0
0 0 0 0 0 0 0 0 0 0 0 -0 0 0 0 0 0 0 0 1 1 0 0 0 0 0 0 0 0 0 0 0 0 0 0 0 0 0 0 0 0 0 0 0 0 0 0 0 0
0 0 0 -0 0 0 0 -0 0 0 0 -0 0 0 0 0 0 0 -0 -0 1 1 0 0 0 0 0 0 0 0 0 0 0 0 0 0 0 0 0 0 0 0 0 0 0 0 0 0 0
0 0 0 0 0 0 -0 -0 0 -0 -0 0 0 0 0 0 0 0 -0 -0 1 1 1 1 1 0 0 0 0 0 0 0 0 0 0 0 0 0 0 0 0 0 0 0 0 0 0 0 0
0 0 0 0 -0 0 0 0 0 -0 -0 0 0 0 0 0 0 0 0 0 0 1 1 1 1 1 0 0 0 0 0 0 0 0 1 1 0 0 1 1 0 0 0 0 0 0 0 0 0
0 0 0 0 0 0 0 0 0 0 0 -0 -0 0 0 0 0 0 0 0 0 0 0 0 1 1 1 0 0 1 1 1 1 1 1 1 1 0 0 0 0 0 0 0 0 0 0 0 0
0 0 0 0 0 0 0 0 0 0 0 0 0 0 0 0 0 0 0 0 0 0 1 1 1 1 1 2 2 2 1 1 1 0 1 1 1 0 0 1 0 0 0 0 0 0 0 0 0
0 0 0 0 -0 0 0 0 0 0 0 0 0 0 0 0 0 0 0 0 0 0 0 2 2 2 2 3 4 3 2 1 1 1 1 0 0 0 0 0 0 0 0 0 0 0 0 0 0
0 0 0 0 0 -0 0 0 0 0 0 0 0 0 0 0 0 0 0 0 1 1 1 0 3 4 4 4 5 3 2 1 1 1 1 0 0 0 0 0 0 0 0 0 0 0 0 0 0
-0 -0 -0 0 -0 0 0 0 0 0 0 0 0 0 0 0 0 0 0 0 0 0 0 0 0 0 1 4 3 3 1 1 1 1 1 0 0 0 0 0 0 0 0 0 0 0 0 0 0
-0 0 0 -0 0 0 0 0 0 0 0 0 0 0 0 0 0 0 0 0 0 0 0 0 0 0 0 0 0 0 0 0 0 0 0 0 0 0 0 0 0 0 0 0 0 0 0 0 0
0 0 0 0 0 0 0 0 0 0 0 0 0 0 0 0 0 0 0 0 0 0 0 0 0 0 0 0 0 0 0 0 0 0 0 0 0 0 0 0 0 0 0 0 0 0 0 0 0
0 0 0 0 0 0 0 0 0 0 0 0 0 0 0 0 0 0 -0 0 0 0 0 0 0 0 0 0 0 0 0 0 0 0 0 0 0 0 0 0 0 0 0 0 0 0 0 0 0
0 0 0 0 0 0 0 0 0 0 0 0 0 0 0 0 0 0 0 0 0 0 0 0 0 0 0 0 0 0 0 0 0 0 0 0 0 0 0 0 0 0 0 0 0 0 0 0 0
0 0 0 0 0 0 0 0 0 0 0 0 0 0 0 0 0 0 0 0 0 0 0 0 0 0 0 0 0 0 0 0 0 0 0 0 0 0 0 0 0 0 0 0 0 0 0 0 0
0 0 0 0 0 0 0 0 0 0 0 0 0 0 0 0 0 0 0 0 0 0 0 0 0 0 0 0 0 0 0 0 0 0 0 0 0 0 0 0 0 0 0 0 0 0 0 0 0
0 0 0 0 0 0 0 0 0 -0 -0 -0 0 0 0 0 0 0 0 0 0 0 0 0 0 0 0 0 0 0 0 0 0 0 0 0 0 0 0 0 0 0 0 0 0 0 0 0 0
0 0 0 0 0 0 0 0 0 0 0 0 0 0 0 0 0 0 0 0 0 0 0 0 0 0 0 0 0 0 0 0 0 0 0 0 0 0 0 0 0 0 0 0 0 0 0 0 0
0 0 0 0 0 0 0 0 0 0 0 0 0 0 0 0 0 0 0 0 0 0 0 0 0 0 0 0 0 0 0 0 0 0 0 0 0 0 0 0 0 0 0 0 0 0 0 0 0
0 0 0 0 0 0 0 0 0 0 0 0 0 0 0 0 0 0 0 0 0 0 0 0 0 0 0 0 0 0 0 0 0 0 0 0 0 0 0 0 0 0 0 0 0 0 0 0 0
0 0 0 0 0 0 0 0 0 0 0 0 0 0 0 0 0 0 0 0 0 0 -0 -0 -0 -0 0 0 0 0 0 0 0 0 0 0 0 0 0 0 0 0 0 0 0 0 0 0 0
Wind_Speed_500mb
35 37 31 6 6 7 3 4 29 23 1 29 54 18 9 2 7 5 25 37 52 45 41 36 33 32 35 35 32 30 28 27 27 27 28 30 30 30 29 29 29 28 26 22 17 14 11 10 9
37 36 9 4 8 7 6 11 38 38 49 57 74 42 16 6 13 27 44 40 45 43 40 36 33 33 34 33 31 29 28 25 25 26 27 27 27 28 29 29 28 25 21 16 11 9 5 3 6
37 27 3 7 5 3 3 15 36 39 19 40 32 36 14 15 33 54 36 48 44 41 38 35 32 32 33 33 30 28 27 23 22 22 23 24 23 23 23 24 23 21 18 15 12 10 7 5 3
34 9 4 7 7 12 9 22 32 42 48 41 19 11 12 33 43 36 47 41 42 39 37 33 31 29 29 30 29 27 26 24 21 20 20 20 20 20 20 19 19 17 15 12 10 7 5 3 2
31 3 8 7 11 10 18 48 57 36 38 40 86 17 25 23 28 36 34 41 42 42 37 33 30 28 26 26 24 23 23 22 20 19 18 18 17 16 17 17 16 14 11 8 5 3 2 2 3
11 6 8 5 10 13 5 64 28 34 61 46 29 29 18 34 37 36 29 39 35 35 38 35 32 28 26 25 22 20 19 19 18 16 15 14 13 14 13 13 13 12 8 4 1 2 5 6 7
5 7 4 2 12 14 11 52 46 32 50 41 68 9 33 53 41 41 42 41 38 37 38 37 32 29 26 23 22 19 17 17 16 15 14 13 12 12 11 10 11 11 8 5 3 4 5 6 7
8 8 4 2 8 12 22 36 47 36 8 41 40 11 30 60 51 50 44 39 34 35 35 37 34 30 26 22 19 16 11 10 12 13 13 12 11 11 11 11 10 9 6 3 2 4 6 7 10
17 6 4 6 3 15 31 18 32 46 57 7 15 35 42 54 57 54 54 49 43 40 37 36 32 29 25 22 19 16 9 2 6 10 11 11 11 12 11 9 8 6 4 2 3 6 5 5 10
7 8 16 14 7 13 4 19 32 27 39 30 26 27 28 35 52 56 58 57 51 47 42 37 33 28 29 25 21 15 9 2 8 8 9 11 13 12 13 15 8 7 9 8 11 2 4 7 9
6 9 7 28 23 30 15 15 29 14 11 20 19 11 12 19 31 38 31 46 52 52 45 37 30 25 32 20 19 12 3 3 8 10 10 14 19 17 18 11 9 9 10 9 5 5 10 11 14
6 23 13 16 53 14 13 21 25 20 14 8 10 5 2 3 4 21 12 10 39 57 43 36 31 23 21 16 15 13 9 9 7 5 12 17 19 19 15 12 9 12 8 4 2 7 9 12 12
12 16 37 45 42 30 31 28 38 33 25 2 2 3 9 15 19 22 9 13 18 46 42 39 30 21 20 19 21 25 18 10 6 9 14 26 23 18 15 10 12 6 10 6 6 6 3 9 14
14 27 43 54 54 26 20 16 14 67 41 22 19 18 18 8 5 12 11 26 30 36 46 36 30 19 12 14 14 19 20 14 14 18 25 26 24 25 25 20 16 14 13 6 6 9 12 16 20
11 8 10 12 37 15 28 5 14 34 32 54 13 24 20 9 12 11 14 23 33 47 43 33 25 15 11 7 9 15 18 20 20 21 21 23 23 27 35 23 18 13 17 15 13 16 14 16 25
9 7 2 8 9 13 13 23 13 25 25 34 28 25 11 9 16 33 37 42 43 46 43 34 24 15 14 11 8 7 10 15 18 23 27 31 26 30 24 30 20 19 20 22 22 19 17 24 33
12 6 10 15 15 12 16 18 21 41 21 28 39 23 30 44 43 43 45 43 39 35 29 23 16 14 14 12 9 8 15 12 14 18 21 17 19 22 29 25 27 25 26 26 19 16 24 33 41
10 8 8 10 16 10 17 14 13 5 23 34 26 36 48 50 44 38 36 33 32 25 16 9 9 10 7 9 4 8 11 10 12 17 15 18 27 26 25 27 30 25 25 20 17 22 27 35 41
10 12 11 27 13 11 1 7 8 8 14 19 21 62 58 52 37 27 22 16 9 7 2 5 1 14 11 12 6 10 13 20 20 23 29 29 29 33 33 33 33 27 20 17 20 24 28 32 41
19 23 18 15 15 14 9 4 6 12 10 20 39 57 63 54 36 27 24 18 11 11 15 13 8 7 4 11 11 12 21 18 20 29 32 31 26 35 39 38 36 24 20 15 17 26 32 35 42
4 10 1 7 11 13 11 16 14 10 5 20 56 63 57 46 38 27 27 32 33 32 26 14 8 12 7 10 13 15 7 12 19 25 24 32 31 24 26 28 26 23 16 13 22 29 34 41 45
9 5 5 8 9 2 8 8 13 13 11 25 47 62 51 46 35 29 31 31 36 33 29 25 20 16 19 14 4 11 13 18 24 21 23 21 12 7 13 18 19 15 15 21 26 30 34 41 47
9 7 3 2 7 6 3 9 24 6 16 19 24 23 35 48 41 38 37 34 33 32 32 30 25 28 30 25 19 4 8 6 6 25 24 19 10 11 14 18 19 21 24 28 32 35 38 43 47
4 4 13 10 8 7 15 10 23 13 16 33 49 57 56 56 54 46 37 33 31 25 24 21 18 19 20 21 23 21 11 1 10 14 12 12 14 20 27 29 31 32 35 37 38 42 43 46 45
22 14 9 9 9 9 4 22 1 15 33 36 38 59 56 46 45 44 42 37 32 32 30 30 28 28 30 30 29 27 22 17 16 24 26 28 34 39 43 42 39 39 38 42 41 44 48 51 49
6 12 10 4 2 7 13 7 3 8 30 37 49 49 49 53 50 49 49 39 34 25 24 22 22 22 25 25 21 23 32 39 36 28 26 28 30 32 38 43 46 48 46 43 39 39 42 48 51
9 7 5 11 7 8 5 7 25 7 33 59 56 67 67 60 53 46 41 40 38 33 29 25 22 19 17 19 22 26 28 29 30 39 43 42 38 32 31 35 37 39 43 43 48 58 61 63 50
10 4 11 8 4 4 7 9 5 10 25 31 42 49 53 48 46 43 41 41 42 43 43 44 45 46 46 44 41 39 39 37 35 37 41 45 46 45 49 45 41 37 43 45 47 51 53 56 54
11 7 11 9 8 8 4 5 16 23 22 24 35 45 46 49 50 52 55 57 61 64 65 66 66 64 62 59 56 52 48 44 47 45 41 47 52 50 44 50 46 56 53 51 53 55 57 60 62
6 9 9 9 4 4 9 1 12 20 32 37 39 45 50 49 54 58 64 75 81 83 83 82 79 78 76 72 68 63 54 48 47 46 42 40 42 49 53 54 52 48 49 55 55 53 52 54 62
Wind_Direction_500mb
343 338 331 287 33 66 104 270 105 316 302 211 182 204 217 154 159 191 145 169 170 158 156 156 156 158 158 156 150 142 134 125 124 125 129 132 131 130 128 129 135 144 149 150 145 138 116 95 106
337 330 314 316 70 12 129 204 147 183 205 182 186 216 248 210 141 143 149 165 161 155 156 155 155 157 158 159 156 150 145 137 133 132 133 135 137 136 135 135 136 142 150 155 158 157 162 148 123
338 342 156 97 122 48 287 186 155 194 206 170 186 189 194 161 151 145 157 156 157 157 154 153 154 157 159 160 160 156 152 149 141 137 137 138 140 141 141 140 138 137 143 150 160 169 169 160 158
340 322 62 71 309 254 271 165 167 182 186 217 183 179 176 153 155 161 150 154 161 159 154 151 154 156 159 160 161 159 159 158 152 144 141 144 146 149 151 152 151 148 148 150 158 170 175 184 229
340 5 47 18 293 286 11 20 148 159 165 44 339 110 128 157 164 151 151 162 168 159 156 156 156 155 157 158 158 159 162 164 162 155 153 154 155 156 159 163 168 170 164 153 138 140 176 227 262
337 50 44 348 296 289 15 20 51 130 97 126 298 109 132 157 149 145 149 161 168 160 160 164 159 156 158 156 154 156 161 168 169 166 163 164 164 165 169 174 182 186 181 177 228 309 317 321 321
122 81 203 266 301 321 22 7 30 9 149 162 170 198 144 166 155 143 145 151 155 163 163 166 162 159 157 154 151 150 159 169 175 176 173 173 175 173 175 181 187 191 196 214 279 336 343 339 331
326 99 117 342 346 298 354 2 4 12 319 147 158 161 163 179 176 168 160 161 156 165 172 170 166 162 158 152 143 137 142 169 181 183 181 182 184 180 179 181 182 186 207 251 337 1 4 355 347
275 59 181 176 22 271 339 11 355 12 39 148 187 149 177 183 177 180 175 175 174 176 179 176 167 164 160 152 141 129 112 100 212 201 191 183 182 184 184 171 152 159 185 167 101 93 52 55 36
130 135 222 184 207 275 322 346 334 8 32 22 83 107 109 152 181 189 183 185 190 187 184 181 170 170 170 162 156 153 144 333 221 228 209 193 188 176 164 147 150 126 144 138 147 191 315 343 349
216 212 189 329 288 269 294 301 332 33 35 43 59 36 80 100 99 167 207 222 214 197 189 178 170 169 175 172 175 174 179 224 211 231 228 210 194 179 165 175 172 166 167 148 163 59 356 353 354
223 263 223 235 267 205 263 308 298 305 305 322 32 44 244 272 335 20 75 98 210 198 189 176 171 173 181 188 197 196 224 189 166 212 227 215 196 206 196 191 221 242 205 249 201 43 35 27 6
171 255 264 239 265 215 202 193 265 289 287 206 327 192 205 258 276 342 85 108 157 196 186 178 178 185 187 187 203 209 201 187 201 193 190 193 212 224 228 222 234 221 234 216 107 30 6 325 325
276 284 266 248 227 242 176 193 175 245 282 256 271 192 176 199 278 327 129 140 160 180 177 179 182 184 196 205 206 222 212 218 216 205 198 205 224 231 224 212 217 194 192 171 209 287 306 316 319
254 269 282 208 218 216 177 213 193 246 268 286 262 172 141 145 248 269 190 155 156 162 165 170 192 219 209 253 253 208 212 220 221 229 243 256 242 262 248 217 207 223 211 194 250 276 302 299 314
3 40 324 283 228 244 171 253 193 232 238 275 196 167 152 124 101 123 133 138 145 160 169 172 181 204 239 260 266 264 214 231 230 240 246 256 251 250 226 193 190 188 196 230 254 284 303 308 312
5 244 283 316 242 228 165 240 238 244 257 177 183 170 126 120 112 109 116 132 135 142 144 162 173 206 234 254 244 270 270 263 244 241 236 228 198 179 192 200 188 206 228 254 270 293 307 314 316
255 291 301 270 290 250 193 207 168 179 184 191 177 128 122 114 107 108 103 112 134 129 125 131 126 150 217 248 240 245 257 249 262 264 249 220 178 184 184 189 206 218 245 259 284 303 311 319 318
274 282 285 293 283 67 186 127 197 237 191 180 149 130 117 112 116 124 122 91 64 50 301 306 191 146 203 222 222 243 253 259 264 243 254 214 211 194 197 206 224 237 247 274 296 309 317 323 325
256 261 266 246 354 73 8 319 272 293 257 212 153 133 127 122 120 105 76 61 52 30 15 22 84 147 242 269 257 253 260 256 226 230 208 215 196 196 212 229 233 243 263 291 311 320 325 332 336
156 115 40 50 335 15 44 336 329 307 250 143 150 137 132 134 124 104 88 80 72 55 43 23 10 13 324 297 285 286 315 224 209 189 189 208 227 233 234 233 235 245 270 304 323 328 330 331 333
65 307 67 83 73 241 79 267 294 313 102 107 129 137 141 134 124 114 94 81 62 59 56 50 36 14 21 4 19 66 110 180 200 206 206 213 213 244 266 259 249 267 289 311 323 324 327 329 328
202 269 289 288 80 62 360 74 324 13 88 44 45 98 120 127 119 110 96 92 86 83 78 76 73 61 42 31 35 354 265 279 301 179 182 194 210 245 249 263 282 282 286 300 312 317 325 330 328
339 18 29 41 83 32 306 132 4 4 71 76 68 67 88 96 90 96 102 108 97 89 81 62 49 27 14 13 17 17 33 164 197 196 209 235 244 234 240 243 251 267 289 295 306 314 320 324 325
39 46 1 22 27 213 133 54 17 87 91 92 92 85 84 78 76 77 75 67 55 45 34 37 33 27 12 356 353 341 337 337 317 308 299 287 279 263 259 260 268 279 280 295 306 314 321 321 318
9 120 135 124 113 267 14 92 155 89 95 89 88 83 74 69 69 73 74 76 71 69 46 31 13 345 335 332 345 341 328 316 305 295 302 291 270 265 271 275 281 286 290 296 301 315 322 324 319
322 41 157 110 357 70 77 160 29 42 69 61 60 62 60 60 58 58 59 50 42 38 31 17 12 4 359 339 315 296 299 293 300 300 289 279 273 270 269 275 282 284 290 297 300 307 311 309 311
89 242 35 13 82 76 339 61 169 6 65 65 54 50 47 43 39 32 23 15 7 360 354 346 342 336 328 317 312 309 304 294 290 288 288 286 283 271 274 266 276 285 300 296 306 315 314 309 309
0 29 59 105 112 140 139 277 30 60 58 57 48 41 29 20 12 4 356 350 343 337 333 328 323 320 317 316 312 303 293 293 289 290 288 282 278 270 259 277 269 281 272 281 299 306 310 311 310
104 64 92 110 248 117 140 113 5 47 54 48 28 14 7 2 355 349 344 336 331 328 325 322 319 315 312 306 301 298 294 287 284 278 280 284 283 283 282 277 266 269 279 284 288 299 302 306 313
Wind_Speed_850mb
35 37 31 6 6 7 3 4 29 23 1 29 54 18 9 2 7 5 25 37 52 45 41 36 33 32 35 35 32 30 28 27 27 27 28 30 30 30 29 29 29 28 26 22 17 14 11 10 9
37 36 9 4 8 7 6 11 38 38 49 57 74 42 16 6 13 27 44 40 45 43 40 36 33 33 34 33 31 29 28 25 25 26 27 27 27 28 29 29 28 25 21 16 11 9 5 3 6
37 27 3 7 5 3 3 15 36 39 19 40 32 36 14 15 33 54 36 48 44 41 38 35 32 32 33 33 30 28 27 23 22 22 23 24 23 23 23 24 23 21 18 15 12 10 7 5 3
34 9 4 7 7 12 9 22 32 42 48 41 19 11 12 33 43 36 47 41 42 39 37 33 31 29 29 30 29 27 26 24 21 20 20 20 20 20 20 19 19 17 15 12 10 7 5 3 2
31 3 8 7 11 10 18 48 57 36 38 40 86 17 25 23 28 36 34 41 42 42 37 33 30 28 26 26 24 23 23 22 20 19 18 18 17 16 17 17 16 14 11 8 5 3 2 2 3
11 6 8 5 10 13 5 64 28 34 61 46 29 29 18 34 37 36 29 39 35 35 38 35 32 28 26 25 22 20 19 19 18 16 15 14 13 14 13 13 13 12 8 4 1 2 5 6 7
5 7 4 2 12 14 11 52 46 32 50 41 68 9 33 53 41 41 42 41 38 37 38 37 32 29 26 23 22 19 17 17 16 15 14 13 12 12 11 10 11 11 8 5 3 4 5 6 7
8 8 4 2 8 12 22 36 47 36 8 41 40 11 30 60 51 50 44 39 34 35 35 37 34 30 26 22 19 16 11 10 12 13 13 12 11 11 11 11 10 9 6 3 2 4 6 7 10
17 6 4 6 3 15 31 18 32 46 57 7 15 35 42 54 57 54 54 49 43 40 37 36 32 29 25 22 19 16 9 2 6 10 11 11 11 12 11 9 8 6 4 2 3 6 5 5 10
7 8 16 14 7 13 4 19 32 27 39 30 26 27 28 35 52 56 58 57 51 47 42 37 33 28 29 25 21 15 9 2 8 8 9 11 13 12 13 15 8 7 9 8 11 2 4 7 9
6 9 7 28 23 30 15 15 29 14 11 20 19 11 12 19 31 38 31 46 52 52 45 37 30 25 32 20 19 12 3 3 8 10 10 14 19 17 18 11 9 9 10 9 5 5 10 11 14
6 23 13 16 53 14 13 21 25 20 14 8 10 5 2 3 4 21 12 10 39 57 43 36 31 23 21 16 15 13 9 9 7 5 12 17 19 19 15 12 9 12 8 4 2 7 9 12 12
12 16 37 45 42 30 31 28 38 33 25 2 2 3 9 15 19 22 9 13 18 46 42 39 30 21 20 19 21 25 18 10 6 9 14 26 23 18 15 10 12 6 10 6 6 6 3 9 14
14 27 43 54 54 26 20 16 14 67 41 22 19 18 18 8 5 12 11 26 30 36 46 36 30 19 12 14 14 19 20 14 14 18 25 26 24 25 25 20 16 14 13 6 6 9 12 16 20
11 8 10 12 37 15 28 5 14 34 32 54 13 24 20 9 12 11 14 23 33 47 43 33 25 15 11 7 9 15 18 20 20 21 21 23 23 27 35 23 18 13 17 15 13 16 14 16 25
9 7 2 8 9 13 13 23 13 25 25 34 28 25 11 9 16 33 37 42 43 46 43 34 24 15 14 11 8 7 10 15 18 23 27 31 26 30 24 30 20 19 20 22 22 19 17 24 33
12 6 10 15 15 12 16 18 21 41 21 28 39 23 30 44 43 43 45 43 39 35 29 23 16 14 14 12 9 8 15 12 14 18 21 17 19 22 29 25 27 25 26 26 19 16 24 33 41
10 8 8 10 16 10 17 14 13 5 23 34 26 36 48 50 44 38 36 33 32 25 16 9 9 10 7 9 4 8 11 10 12 17 15 18 27 26 25 27 30 25 25 20 17 22 27 35 41
10 12 11 27 13 11 1 7 8 8 14 19 21 62 58 52 37 27 22 16 9 7 2 5 1 14 11 12 6 10 13 20 20 23 29 29 29 33 33 33 33 27 20 17 20 24 28 32 41
19 23 18 15 15 14 9 4 6 12 10 20 39 57 63 54 36 27 24 18 11 11 15 13 8 7 4 11 11 12 21 18 20 29 32 31 26 35 39 38 36 24 20 15 17 26 32 35 42
4 10 1 7 11 13 11 16 14 10 5 20 56 63 57 46 38 27 27 32 33 32 26 14 8 12 7 10 13 15 7 12 19 25 24 32 31 24 26 28 26 23 16 13 22 29 34 41 45
9 5 5 8 9 2 8 8 13 13 11 25 47 62 51 46 35 29 31 31 36 33 29 25 20 16 19 14 4 11 13 18 24 21 23 21 12 7 13 18 19 15 15 21 26 30 34 41 47
9 7 3 2 7 6 3 9 24 6 16 19 24 23 35 48 41 38 37 34 33 32 32 30 25 28 30 25 19 4 8 6 6 25 24 19 10 11 14 18 19 21 24 28 32 35 38 43 47
4 4 13 10 8 7 15 10 23 13 16 33 49 57 56 56 54 46 37 33 31 25 24 21 18 19 20 21 23 21 11 1 10 14 12 12 14 20 27 29 31 32 35 37 38 42 43 46 45
22 14 9 9 9 9 4 22 1 15 33 36 38 59 56 46 45 44 42 37 32 32 30 30 28 28 30 30 29 27 22 17 16 24 26 28 34 39 43 42 39 39 38 42 41 44 48 51 49
6 12 10 4 2 7 13 7 3 8 30 37 49 49 49 53 50 49 49 39 34 25 24 22 22 22 25 25 21 23 32 39 36 28 26 28 30 32 38 43 46 48 46 43 39 39 42 48 51
9 7 5 11 7 8 5 7 25 7 33 59 56 67 67 60 53 46 41 40 38 33 29 25 22 19 17 19 22 26 28 29 30 39 43 42 38 32 31 35 37 39 43 43 48 58 61 63 50
10 4 11 8 4 4 7 9 5 10 25 31 42 49 53 48 46 43 41 41 42 43 43 44 45 46 46 44 41 39 39 37 35 37 41 45 46 45 49 45 41 37 43 45 47 51 53 56 54
11 7 11 9 8 8 4 5 16 23 22 24 35 45 46 49 50 52 55 57 61 64 65 66 66 64 62 59 56 52 48 44 47 45 41 47 52 50 44 50 46 56 53 51 53 55 57 60 62
6 9 9 9 4 4 9 1 12 20 32 37 39 45 50 49 54 58 64 75 81 83 83 82 79 78 76 72 68 63 54 48 47 46 42 40 42 49 53 54 52 48 49 55 55 53 52 54 62
Wind_Direction_850mb
343 338 331 287 33 66 104 270 105 316 302 211 182 204 217 154 159 191 145 169 170 158 156 156 156 158 158 156 150 142 134 125 124 125 129 132 131 130 128 129 135 144 149 150 145 138 116 95 106
337 330 314 316 70 12 129 204 147 183 205 182 186 216 248 210 141 143 149 165 161 155 156 155 155 157 158 159 156 150 145 137 133 132 133 135 137 136 135 135 136 142 150 155 158 157 162 148 123
338 342 156 97 122 48 287 186 155 194 206 170 186 189 194 161 151 145 157 156 157 157 154 153 154 157 159 160 160 156 152 149 141 137 137 138 140 141 141 140 138 137 143 150 160 169 169 160 158
340 322 62 71 309 254 271 165 167 182 186 217 183 179 176 153 155 161 150 154 161 159 154 151 154 156 159 160 161 159 159 158 152 144 141 144 146 149 151 152 151 148 148 150 158 170 175 184 229
340 5 47 18 293 286 11 20 148 159 165 44 339 110 128 157 164 151 151 162 168 159 156 156 156 155 157 158 158 159 162 164 162 155 153 154 155 156 159 163 168 170 164 153 138 140 176 227 262
337 50 44 348 296 289 15 20 51 130 97 126 298 109 132 157 149 145 149 161 168 160 160 164 159 156 158 156 154 156 161 168 169 166 163 164 164 165 169 174 182 186 181 177 228 309 317 321 321
122 81 203 266 301 321 22 7 30 9 149 162 170 198 144 166 155 143 145 151 155 163 163 166 162 159 157 154 151 150 159 169 175 176 173 173 175 173 175 181 187 191 196 214 279 336 343 339 331
326 99 117 342 346 298 354 2 4 12 319 147 158 161 163 179 176 168 160 161 156 165 172 170 166 162 158 152 143 137 142 169 181 183 181 182 184 180 179 181 182 186 207 251 337 1 4 355 347
275 59 181 176 22 271 339 11 355 12 39 148 187 149 177 183 177 180 175 175 174 176 179 176 167 164 160 152 141 129 112 100 212 201 191 183 182 184 184 171 152 159 185 167 101 93 52 55 36
130 135 222 184 207 275 322 346 334 8 32 22 83 107 109 152 181 189 183 185 190 187 184 181 170 170 170 162 156 153 144 333 221 228 209 193 188 176 164 147 150 126 144 138 147 191 315 343 349
216 212 189 329 288 269 294 301 332 33 35 43 59 36 80 100 99 167 207 222 214 197 189 178 170 169 175 172 175 174 179 224 211 231 228 210 194 179 165 175 172 166 167 148 163 59 356 353 354
223 263 223 235 267 205 263 308 298 305 305 322 32 44 244 272 335 20 75 98 210 198 189 176 171 173 181 188 197 196 224 189 166 212 227 215 196 206 196 191 221 242 205 249 201 43 35 27 6
171 255 264 239 265 215 202 193 265 289 287 206 327 192 205 258 276 342 85 108 157 196 186 178 178 185 187 187 203 209 201 187 201 193 190 193 212 224 228 222 234 221 234 216 107 30 6 325 325
276 284 266 248 227 242 176 193 175 245 282 256 271 192 176 199 278 327 129 140 160 180 177 179 182 184 196 205 206 222 212 218 216 205 198 205 224 231 224 212 217 194 192 171 209 287 306 316 319
254 269 282 208 218 216 177 213 193 246 268 286 262 172 141 145 248 269 190 155 156 162 165 170 192 219 209 253 253 208 212 220 221 229 243 256 242 262 248 217 207 223 211 194 250 276 302 299 314
3 40 324 283 228 244 171 253 193 232 238 275 196 167 152 124 101 123 133 138 145 160 169 172 181 204 239 260 266 264 214 231 230 240 246 256 251 250 226 193 190 188 196 230 254 284 303 308 312
5 244 283 316 242 228 165 240 238 244 257 177 183 170 126 120 112 109 116 132 135 142 144 162 173 206 234 254 244 270 270 263 244 241 236 228 198 179 192 200 188 206 228 254 270 293 307 314 316
255 291 301 270 290 250 193 207 168 179 184 191 177 128 122 114 107 108 103 112 134 129 125 131 126 150 217 248 240 245 257 249 262 264 249 220 178 184 184 189 206 218 245 259 284 303 311 319 318
274 282 285 293 283 67 186 127 197 237 191 180 149 130 117 112 116 124 122 91 64 50 301 306 191 146 203 222 222 243 253 259 264 243 254 214 211 194 197 206 224 237 247 274 296 309 317 323 325
256 261 266 246 354 73 8 319 272 293 257 212 153 133 127 122 120 105 76 61 52 30 15 22 84 147 242 269 257 253 260 256 226 230 208 215 196 196 212 229 233 243 263 291 311 320 325 332 336
156 115 40 50 335 15 44 336 329 307 250 143 150 137 132 134 124 104 88 80 72 55 43 23 10 13 324 297 285 286 315 224 209 189 189 208 227 233 234 233 235 245 270 304 323 328 330 331 333
65 307 67 83 73 241 79 267 294 313 102 107 129 137 141 134 124 114 94 81 62 59 56 50 36 14 21 4 19 66 110 180 200 206 206 213 213 244 266 259 249 267 289 311 323 324 327 329 328
202 269 289 288 80 62 360 74 324 13 88 44 45 98 120 127 119 110 96 92 86 83 78 76 73 61 42 31 35 354 265 279 301 179 182 194 210 245 249 263 282 282 286 300 312 317 325 330 328
339 18 29 41 83 32 306 132 4 4 71 76 68 67 88 96 90 96 102 108 97 89 81 62 49 27 14 13 17 17 33 164 197 196 209 235 244 234 240 243 251 267 289 295 306 314 320 324 325
39 46 1 22 27 213 133 54 17 87 91 92 92 85 84 78 76 77 75 67 55 45 34 37 33 27 12 356 353 341 337 337 317 308 299 287 279 263 259 260 268 279 280 295 306 314 321 321 318
9 120 135 124 113 267 14 92 155 89 95 89 88 83 74 69 69 73 74 76 71 69 46 31 13 345 335 332 345 341 328 316 305 295 302 291 270 265 271 275 281 286 290 296 301 315 322 324 319
322 41 157 110 357 70 77 160 29 42 69 61 60 62 60 60 58 58 59 50 42 38 31 17 12 4 359 339 315 296 299 293 300 300 289 279 273 270 269 275 282 284 290 297 300 307 311 309 311
89 242 35 13 82 76 339 61 169 6 65 65 54 50 47 43 39 32 23 15 7 360 354 346 342 336 328 317 312 309 304 294 290 288 288 286 283 271 274 266 276 285 300 296 306 315 314 309 309
0 29 59 105 112 140 139 277 30 60 58 57 48 41 29 20 12 4 356 350 343 337 333 328 323 320 317 316 312 303 293 293 289 290 288 282 278 270 259 277 269 281 272 281 299 306 310 311 310
104 64 92 110 248 117 140 113 5 47 54 48 28 14 7 2 355 349 344 336 331 328 325 322 319 315 312 306 301 298 294 287 284 278 280 284 283 283 282 277 266 269 279 284 288 299 302 306 313